KLM92W EKCH-EHAM

Flight info

Callsign KLM92W
Flight time 1h 7m
Altitude 34000
Route LANGO M611 ALASA DCT WANZA N872 KUBAT T200 BLUFA
Aircraft B738/M-SDE2E3FGHIRWXY/LB1

Departure

Time 2026-05-06 10:01
Airport Copenhagen Kastrup Airport (EKCH)

Arrival

Time 2026-05-06 11:09
Airport Amsterdam Airport Schiphol (EHAM)
Time Latitude Longitude Altitude Speed Heading
2026-05-06 08:51 55.62897 12.63870 23 ft 0 kts 13°
2026-05-06 09:49 55.62889 12.63867 24 ft 4 kts 12°
2026-05-06 09:49 55.62866 12.63859 25 ft 2 kts 12°
2026-05-06 09:49 55.62848 12.63846 26 ft 4 kts 77°
2026-05-06 09:50 55.62850 12.63805 27 ft 4 kts 104°
2026-05-06 09:50 55.62856 12.63759 24 ft 4 kts 104°
2026-05-06 09:50 55.62861 12.63723 24 ft 4 kts 99°
2026-05-06 09:50 55.62863 12.63676 24 ft 4 kts 86°
2026-05-06 09:51 55.62862 12.63667 27 ft 2 kts 86°
2026-05-06 09:54 55.62863 12.63671 24 ft 2 kts 86°
2026-05-06 09:54 55.62860 12.63733 25 ft 9 kts 101°
2026-05-06 09:54 55.62842 12.63868 23 ft 12 kts 103°
2026-05-06 09:55 55.62782 12.63950 23 ft 12 kts 189°
2026-05-06 09:55 55.62710 12.63880 23 ft 10 kts 212°
2026-05-06 09:55 55.62653 12.63815 23 ft 10 kts 212°
2026-05-06 09:55 55.62597 12.63774 23 ft 3 kts 195°
2026-05-06 09:56 55.62596 12.63774 23 ft 0 kts 195°
2026-05-06 09:56 55.62593 12.63773 23 ft 2 kts 194°
2026-05-06 09:56 55.62562 12.63766 23 ft 8 kts 182°
2026-05-06 09:56 55.62489 12.63793 22 ft 15 kts 157°
2026-05-06 09:57 55.62408 12.63942 22 ft 18 kts 122°
2026-05-06 09:57 55.62338 12.64129 19 ft 18 kts 123°
2026-05-06 09:57 55.62273 12.64306 21 ft 17 kts 123°
2026-05-06 09:57 55.62174 12.64417 21 ft 19 kts 168°
2026-05-06 09:58 55.62041 12.64462 25 ft 21 kts 169°
2026-05-06 09:58 55.61896 12.64510 25 ft 21 kts 169°
2026-05-06 09:58 55.61756 12.64557 23 ft 20 kts 169°
2026-05-06 09:58 55.61626 12.64507 24 ft 20 kts 213°
2026-05-06 09:59 55.61506 12.64371 25 ft 22 kts 214°
2026-05-06 09:59 55.61365 12.64209 23 ft 26 kts 213°
2026-05-06 09:59 55.61210 12.64030 23 ft 26 kts 213°
2026-05-06 09:59 55.61066 12.63865 23 ft 23 kts 213°
2026-05-06 10:00 55.60937 12.63715 23 ft 21 kts 212°
2026-05-06 10:00 55.60829 12.63598 25 ft 14 kts 198°
2026-05-06 10:00 55.60749 12.63674 23 ft 14 kts 130°
2026-05-06 10:00 55.60678 12.63816 28 ft 16 kts 116°
2026-05-06 10:01 55.60752 12.63984 28 ft 30 kts 40°
2026-05-06 10:01 55.61096 12.64516 22 ft 100 kts 41°
2026-05-06 10:01 55.61773 12.65570 36 ft 156 kts 42°
2026-05-06 10:01 55.62574 12.66826 849 ft 148 kts 41°
2026-05-06 10:02 55.63356 12.68034 1615 ft 155 kts 43°
2026-05-06 10:02 55.64224 12.69364 2066 ft 179 kts 43°
2026-05-06 10:02 55.65244 12.70922 2280 ft 205 kts 42°
2026-05-06 10:02 55.66393 12.72651 2513 ft 228 kts 42°
2026-05-06 10:03 55.67648 12.74530 2904 ft 245 kts 41°
2026-05-06 10:03 55.68986 12.76472 3668 ft 251 kts 35°
2026-05-06 10:03 55.70663 12.77380 4450 ft 260 kts
2026-05-06 10:03 55.72428 12.76580 5253 ft 268 kts 334°
2026-05-06 10:04 55.73874 12.74459 6049 ft 275 kts 309°
2026-05-06 10:04 55.74689 12.71365 6818 ft 282 kts 282°
2026-05-06 10:04 55.74623 12.67905 7696 ft 283 kts 253°
2026-05-06 10:04 55.73785 12.64846 8726 ft 279 kts 237°
2026-05-06 10:05 55.72681 12.62003 9686 ft 280 kts 234°
2026-05-06 10:05 55.71515 12.59185 10409 ft 290 kts 234°
2026-05-06 10:05 55.70258 12.56180 10623 ft 315 kts 234°
2026-05-06 10:05 55.68902 12.52930 10846 ft 338 kts 234°
2026-05-06 10:06 55.67492 12.49527 11518 ft 345 kts 234°
2026-05-06 10:06 55.66059 12.46054 12190 ft 351 kts 234°
2026-05-06 10:06 55.64608 12.42523 12892 ft 356 kts 234°
2026-05-06 10:06 55.63152 12.38969 13751 ft 357 kts 234°
2026-05-06 10:07 55.61704 12.35433 14462 ft 359 kts 234°
2026-05-06 10:07 55.60233 12.31839 15153 ft 362 kts 234°
2026-05-06 10:07 55.58747 12.28208 15820 ft 366 kts 234°
2026-05-06 10:07 55.57247 12.24548 16507 ft 369 kts 234°
2026-05-06 10:08 55.55733 12.20857 17197 ft 371 kts 234°
2026-05-06 10:08 55.54211 12.17151 17858 ft 374 kts 234°
2026-05-06 10:08 55.52675 12.13414 18466 ft 377 kts 234°
2026-05-06 10:08 55.51123 12.09646 19052 ft 380 kts 234°
2026-05-06 10:09 55.49563 12.05865 19630 ft 382 kts 234°
2026-05-06 10:09 55.47990 12.02057 20204 ft 384 kts 234°
2026-05-06 10:09 55.46431 11.98290 20759 ft 386 kts 234°
2026-05-06 10:09 55.44837 11.94444 21296 ft 389 kts 234°
2026-05-06 10:10 55.43233 11.90579 21838 ft 392 kts 234°
2026-05-06 10:10 55.41620 11.86699 22354 ft 394 kts 234°
2026-05-06 10:10 55.39995 11.82796 22876 ft 397 kts 234°
2026-05-06 10:10 55.38356 11.78866 23384 ft 399 kts 234°
2026-05-06 10:11 55.36709 11.74924 23813 ft 401 kts 234°
2026-05-06 10:11 55.35047 11.70951 24231 ft 404 kts 233°
2026-05-06 10:11 55.33374 11.66960 24655 ft 405 kts 233°
2026-05-06 10:11 55.31699 11.62969 25153 ft 405 kts 233°
2026-05-06 10:12 55.30047 11.59040 25565 ft 406 kts 233°
2026-05-06 10:12 55.28360 11.55034 25909 ft 410 kts 232°
2026-05-06 10:12 55.26658 11.51000 26262 ft 412 kts 232°
2026-05-06 10:12 55.24944 11.46942 26632 ft 414 kts 232°
2026-05-06 10:13 55.23220 11.42870 26943 ft 417 kts 232°
2026-05-06 10:13 55.21479 11.38765 27218 ft 421 kts 232°
2026-05-06 10:13 55.19725 11.34632 27573 ft 423 kts 232°
2026-05-06 10:13 55.17965 11.30495 27939 ft 424 kts 232°
2026-05-06 10:14 55.16198 11.26347 28286 ft 426 kts 232°
2026-05-06 10:14 55.14416 11.22172 28579 ft 428 kts 231°
2026-05-06 10:14 55.12650 11.18040 28874 ft 430 kts 231°
2026-05-06 10:14 55.10852 11.13841 29176 ft 432 kts 231°
2026-05-06 10:15 55.09043 11.09622 29524 ft 433 kts 231°
2026-05-06 10:15 55.07240 11.05424 30009 ft 430 kts 231°
2026-05-06 10:15 55.05443 11.01247 30433 ft 427 kts 231°
2026-05-06 10:15 55.03680 10.97155 30815 ft 426 kts 231°
2026-05-06 10:16 55.01903 10.93039 31259 ft 423 kts 230°
2026-05-06 10:16 55.00129 10.88937 31533 ft 424 kts 230°
2026-05-06 10:16 54.98344 10.84819 31795 ft 424 kts 230°
2026-05-06 10:16 54.96583 10.80761 32158 ft 423 kts 230°
2026-05-06 10:17 54.94813 10.76689 32576 ft 420 kts 229°
2026-05-06 10:17 54.93052 10.72644 32945 ft 419 kts 229°
2026-05-06 10:17 54.91293 10.68610 33262 ft 418 kts 229°
2026-05-06 10:17 54.89531 10.64577 33587 ft 417 kts 229°
2026-05-06 10:18 54.87801 10.60622 33930 ft 416 kts 229°
2026-05-06 10:18 54.86052 10.56632 34196 ft 415 kts 229°
2026-05-06 10:18 54.84292 10.52623 34371 ft 416 kts 229°
2026-05-06 10:18 54.82531 10.48617 34553 ft 418 kts 229°
2026-05-06 10:19 54.81361 10.45961 34684 ft 418 kts 229°
2026-05-06 10:19 54.79009 10.40610 34791 ft 423 kts 229°
2026-05-06 10:19 54.77215 10.36549 34919 ft 425 kts 229°
2026-05-06 10:19 54.76022 10.33855 35099 ft 424 kts 229°
2026-05-06 10:20 54.74229 10.29811 35389 ft 422 kts 229°
2026-05-06 10:20 54.72440 10.25782 35598 ft 422 kts 230°
2026-05-06 10:20 54.70057 10.20427 35818 ft 424 kts 230°
2026-05-06 10:20 54.68837 10.17690 35969 ft 424 kts 230°
2026-05-06 10:21 54.67034 10.13648 36194 ft 423 kts 230°
2026-05-06 10:21 54.65238 10.09627 36398 ft 423 kts 230°
2026-05-06 10:21 54.63434 10.05595 36572 ft 424 kts 230°
2026-05-06 10:21 54.61656 10.01626 36765 ft 424 kts 230°
2026-05-06 10:22 54.59845 9.97592 36963 ft 424 kts 230°
2026-05-06 10:22 54.58034 9.93562 37093 ft 425 kts 230°
2026-05-06 10:22 54.56218 9.89531 37225 ft 427 kts 231°
2026-05-06 10:22 54.54399 9.85498 37435 ft 426 kts 231°
2026-05-06 10:23 54.52583 9.81477 37648 ft 425 kts 231°
2026-05-06 10:23 54.50763 9.77455 37822 ft 425 kts 231°
2026-05-06 10:23 54.47106 9.69392 37907 ft 429 kts 231°
2026-05-06 10:24 54.43406 9.61374 37924 ft 427 kts 230°
2026-05-06 10:24 54.39737 9.53482 37909 ft 424 kts 231°
2026-05-06 10:25 54.36078 9.45547 37880 ft 422 kts 231°
2026-05-06 10:25 54.32442 9.37641 37887 ft 421 kts 231°
2026-05-06 10:26 54.28831 9.29799 37885 ft 421 kts 231°
2026-05-06 10:26 54.25186 9.21906 37886 ft 422 kts 231°
2026-05-06 10:27 54.21554 9.14067 37902 ft 424 kts 230°
2026-05-06 10:27 54.17874 9.06151 37895 ft 426 kts 230°
2026-05-06 10:28 54.14172 8.98215 37889 ft 428 kts 230°
2026-05-06 10:28 54.10465 8.90290 37888 ft 430 kts 230°
2026-05-06 10:29 54.06724 8.82320 37888 ft 431 kts 230°
2026-05-06 10:29 54.02960 8.74327 37883 ft 432 kts 230°
2026-05-06 10:30 53.99203 8.66374 37887 ft 433 kts 230°
2026-05-06 10:30 53.95415 8.58381 37885 ft 432 kts 230°
2026-05-06 10:31 53.91641 8.50442 37878 ft 431 kts 230°
2026-05-06 10:31 53.87894 8.42586 37889 ft 430 kts 230°
2026-05-06 10:32 53.84120 8.34698 37895 ft 430 kts 230°
2026-05-06 10:32 53.82227 8.30751 37736 ft 432 kts 230°
2026-05-06 10:32 53.80331 8.26806 37534 ft 431 kts 230°
2026-05-06 10:33 53.78444 8.22881 37343 ft 428 kts 230°
2026-05-06 10:33 53.76583 8.19019 37144 ft 428 kts 229°
2026-05-06 10:33 53.74698 8.15115 36877 ft 429 kts 229°
2026-05-06 10:33 53.72812 8.11214 36632 ft 429 kts 229°
2026-05-06 10:34 53.70917 8.07300 36405 ft 429 kts 229°
2026-05-06 10:34 53.69027 8.03402 36201 ft 429 kts 229°
2026-05-06 10:34 53.67138 7.99512 35992 ft 428 kts 229°
2026-05-06 10:34 53.65241 7.95612 35795 ft 428 kts 228°
2026-05-06 10:35 53.63378 7.91789 35598 ft 427 kts 228°
2026-05-06 10:35 53.61489 7.87916 35356 ft 428 kts 228°
2026-05-06 10:35 53.59594 7.84041 35114 ft 428 kts 228°
2026-05-06 10:35 53.57700 7.80170 34873 ft 428 kts 227°
2026-05-06 10:36 53.55800 7.76295 34644 ft 428 kts 227°
2026-05-06 10:36 53.53902 7.72430 34406 ft 428 kts 227°
2026-05-06 10:36 53.52000 7.68561 34170 ft 428 kts 227°
2026-05-06 10:36 53.50125 7.64754 33943 ft 427 kts 227°
2026-05-06 10:37 53.48228 7.60908 33665 ft 427 kts 228°
2026-05-06 10:37 53.46330 7.57069 33387 ft 427 kts 228°
2026-05-06 10:37 53.44433 7.53236 33109 ft 427 kts 228°
2026-05-06 10:37 53.42537 7.49409 32838 ft 427 kts 228°
2026-05-06 10:38 53.40641 7.45588 32569 ft 426 kts 228°
2026-05-06 10:38 53.38744 7.41773 32302 ft 425 kts 228°
2026-05-06 10:38 53.36844 7.37955 32016 ft 423 kts 228°
2026-05-06 10:38 53.34993 7.34241 31597 ft 417 kts 228°
2026-05-06 10:39 53.33133 7.30516 31153 ft 413 kts 228°
2026-05-06 10:39 53.31293 7.26836 30712 ft 410 kts 229°
2026-05-06 10:39 53.29470 7.23196 30279 ft 406 kts 228°
2026-05-06 10:39 53.27665 7.19596 29816 ft 403 kts 228°
2026-05-06 10:40 53.25868 7.16017 29327 ft 399 kts 228°
2026-05-06 10:40 53.24093 7.12488 28882 ft 395 kts 228°
2026-05-06 10:40 53.22352 7.09032 28338 ft 392 kts 228°
2026-05-06 10:40 53.20590 7.05541 27694 ft 393 kts 228°
2026-05-06 10:41 53.18821 7.02040 27105 ft 393 kts 228°
2026-05-06 10:41 53.17059 6.98557 26650 ft 390 kts 228°
2026-05-06 10:41 53.15336 6.95155 26279 ft 384 kts 228°
2026-05-06 10:41 53.13622 6.91774 25910 ft 380 kts 228°
2026-05-06 10:42 53.11929 6.88441 25911 ft 378 kts 229°
2026-05-06 10:42 53.10222 6.85085 25724 ft 382 kts 228°
2026-05-06 10:42 53.08480 6.81667 25087 ft 385 kts 229°
2026-05-06 10:42 53.06743 6.78261 24549 ft 384 kts 229°
2026-05-06 10:43 53.05039 6.74923 24126 ft 380 kts 229°
2026-05-06 10:43 53.03331 6.71582 23695 ft 378 kts 229°
2026-05-06 10:43 53.01635 6.68269 23228 ft 375 kts 229°
2026-05-06 10:44 52.98267 6.61702 22302 ft 368 kts 229°
2026-05-06 10:44 52.96613 6.58483 21904 ft 364 kts 229°
2026-05-06 10:44 52.94980 6.55309 21484 ft 360 kts 229°
2026-05-06 10:44 52.93379 6.52204 21076 ft 357 kts 229°
2026-05-06 10:45 52.91775 6.49094 20666 ft 354 kts 229°
2026-05-06 10:45 52.90179 6.46004 20279 ft 351 kts 229°
2026-05-06 10:45 52.88596 6.42941 19878 ft 348 kts 229°
2026-05-06 10:45 52.87020 6.39896 19453 ft 346 kts 229°
2026-05-06 10:46 52.85458 6.36883 19087 ft 345 kts 229°
2026-05-06 10:46 52.83893 6.33870 18698 ft 343 kts 230°
2026-05-06 10:46 52.82408 6.30780 18316 ft 342 kts 233°
2026-05-06 10:46 52.81059 6.27602 17900 ft 342 kts 235°
2026-05-06 10:47 52.79729 6.24356 17470 ft 341 kts 235°
2026-05-06 10:47 52.78401 6.21108 17064 ft 338 kts 235°
2026-05-06 10:47 52.77074 6.17887 16665 ft 336 kts 235°
2026-05-06 10:47 52.75756 6.14716 16283 ft 334 kts 235°
2026-05-06 10:48 52.74455 6.11607 15910 ft 332 kts 235°
2026-05-06 10:48 52.73141 6.08484 15536 ft 330 kts 235°
2026-05-06 10:48 52.71835 6.05388 15157 ft 328 kts 235°
2026-05-06 10:48 52.70531 6.02307 14794 ft 326 kts 235°
2026-05-06 10:49 52.69235 5.99250 14430 ft 325 kts 236°
2026-05-06 10:49 52.67941 5.96201 14060 ft 323 kts 236°
2026-05-06 10:49 52.66650 5.93166 13699 ft 322 kts 236°
2026-05-06 10:49 52.65367 5.90151 13300 ft 320 kts 236°
2026-05-06 10:50 52.64090 5.87154 12911 ft 319 kts 235°
2026-05-06 10:50 52.62817 5.84170 12536 ft 317 kts 235°
2026-05-06 10:50 52.61565 5.81239 12176 ft 315 kts 236°
2026-05-06 10:50 52.60309 5.78300 11817 ft 313 kts 236°
2026-05-06 10:51 52.59053 5.75367 11461 ft 312 kts 235°
2026-05-06 10:51 52.57805 5.72454 11043 ft 313 kts 235°
2026-05-06 10:51 52.56559 5.69549 10754 ft 309 kts 235°
2026-05-06 10:51 52.55318 5.66659 10398 ft 308 kts 235°
2026-05-06 10:52 52.54092 5.63806 10201 ft 301 kts 235°
2026-05-06 10:52 52.52909 5.61060 10069 ft 293 kts 235°
2026-05-06 10:52 52.51744 5.58357 9938 ft 285 kts 235°
2026-05-06 10:52 52.50633 5.55701 9820 ft 278 kts 238°
2026-05-06 10:53 52.49620 5.52992 9719 ft 279 kts 239°
2026-05-06 10:53 52.48608 5.50200 9624 ft 287 kts 239°
2026-05-06 10:53 52.47576 5.47354 9502 ft 291 kts 240°
2026-05-06 10:53 52.46551 5.44537 9389 ft 291 kts 240°
2026-05-06 10:54 52.45496 5.41695 9278 ft 291 kts 238°
2026-05-06 10:54 52.44399 5.38921 9157 ft 290 kts 238°
2026-05-06 10:54 52.43282 5.36161 9051 ft 290 kts 237°
2026-05-06 10:54 52.42167 5.33406 8944 ft 290 kts 237°
2026-05-06 10:55 52.41052 5.30645 8833 ft 290 kts 237°
2026-05-06 10:55 52.39951 5.27917 8724 ft 290 kts 238°
2026-05-06 10:55 52.38832 5.25163 8615 ft 289 kts 238°
2026-05-06 10:55 52.37708 5.22419 8505 ft 290 kts 237°
2026-05-06 10:56 52.36583 5.19676 8393 ft 289 kts 237°
2026-05-06 10:56 52.35461 5.16934 8288 ft 289 kts 237°
2026-05-06 10:56 52.34345 5.14194 8095 ft 290 kts 238°
2026-05-06 10:56 52.33240 5.11490 7915 ft 286 kts 238°
2026-05-06 10:57 52.32126 5.08773 7558 ft 287 kts 238°
2026-05-06 10:57 52.31003 5.06042 7252 ft 286 kts 238°
2026-05-06 10:57 52.29892 5.03347 6950 ft 286 kts 237°
2026-05-06 10:57 52.28796 5.00673 6727 ft 281 kts 238°
2026-05-06 10:58 52.27705 4.98017 6283 ft 286 kts 237°
2026-05-06 10:58 52.26583 4.95297 5946 ft 287 kts 238°
2026-05-06 10:58 52.25463 4.92598 5589 ft 286 kts 237°
2026-05-06 10:58 52.24347 4.89912 5163 ft 283 kts 237°
2026-05-06 10:59 52.23261 4.87296 4739 ft 279 kts 237°
2026-05-06 10:59 52.22178 4.84683 4290 ft 276 kts 237°
2026-05-06 10:59 52.21105 4.82089 3806 ft 276 kts 237°
2026-05-06 10:59 52.20038 4.79511 3456 ft 269 kts 237°
2026-05-06 11:00 52.19024 4.77056 3189 ft 257 kts 237°
2026-05-06 11:00 52.18033 4.74661 2897 ft 251 kts 237°
2026-05-06 11:00 52.17070 4.72336 2647 ft 242 kts 237°
2026-05-06 11:00 52.16148 4.70128 2469 ft 230 kts 237°
2026-05-06 11:01 52.15263 4.68029 2265 ft 220 kts 237°
2026-05-06 11:01 52.14407 4.66026 2090 ft 210 kts 237°
2026-05-06 11:01 52.13589 4.64135 1986 ft 197 kts 238°
2026-05-06 11:01 52.12816 4.62374 1987 ft 192 kts 237°
2026-05-06 11:02 52.12049 4.60613 1982 ft 189 kts 237°
2026-05-06 11:02 52.11376 4.58791 1975 ft 188 kts 259°
2026-05-06 11:02 52.11319 4.57417 2021 ft 181 kts 286°
2026-05-06 11:02 52.11930 4.55724 1983 ft 172 kts 328°
2026-05-06 11:03 52.13002 4.55052 2002 ft 163 kts 351°
2026-05-06 11:03 52.14113 4.54678 1994 ft 162 kts 352°
2026-05-06 11:03 52.15220 4.54318 1994 ft 163 kts 352°
2026-05-06 11:03 52.16335 4.53960 1989 ft 164 kts 352°
2026-05-06 11:04 52.17456 4.53621 1992 ft 164 kts 352°
2026-05-06 11:04 52.18579 4.53309 1980 ft 163 kts 358°
2026-05-06 11:04 52.19629 4.53781 2014 ft 156 kts 30°
2026-05-06 11:04 52.20565 4.54714 2011 ft 159 kts 32°
2026-05-06 11:05 52.21499 4.55656 1996 ft 161 kts 32°
2026-05-06 11:05 52.22342 4.56817 1992 ft 157 kts 51°
2026-05-06 11:05 52.22970 4.58291 2000 ft 159 kts 53°
2026-05-06 11:05 52.23580 4.59804 1962 ft 160 kts 55°
2026-05-06 11:06 52.24164 4.61315 1773 ft 154 kts 56°
2026-05-06 11:06 52.24708 4.62738 1606 ft 143 kts 56°
2026-05-06 11:06 52.25226 4.64096 1390 ft 137 kts 55°
2026-05-06 11:06 52.25728 4.65415 1192 ft 138 kts 56°
2026-05-06 11:07 52.26222 4.66779 995 ft 140 kts 56°
2026-05-06 11:07 52.26732 4.68133 769 ft 139 kts 54°
2026-05-06 11:07 52.27258 4.69435 595 ft 140 kts 54°
2026-05-06 11:07 52.27773 4.70779 456 ft 139 kts 56°
2026-05-06 11:08 52.28293 4.72125 250 ft 141 kts 56°
2026-05-06 11:08 52.28806 4.73463 73 ft 137 kts 54°
2026-05-06 11:08 52.29298 4.74729 -1 ft 119 kts 58°
2026-05-06 11:08 52.29659 4.75671 -3 ft 76 kts 58°
2026-05-06 11:09 52.29861 4.76192 -4 ft 32 kts 59°
2026-05-06 11:09 52.29918 4.76345 -5 ft 11 kts 58°
2026-05-06 11:09 52.29981 4.76483 -3 ft 18 kts 40°
2026-05-06 11:09 52.30091 4.76597 -3 ft 19 kts 26°
2026-05-06 11:10 52.30177 4.76667 -2 ft 1 kts 27°
2026-05-06 11:10 52.30181 4.76670 -2 ft 1 kts 27°
2026-05-06 11:10 52.30185 4.76674 -2 ft 1 kts 27°
2026-05-06 11:10 52.30205 4.76691 -2 ft 6 kts 28°
2026-05-06 11:11 52.30260 4.76739 -2 ft 12 kts 28°
2026-05-06 11:11 52.30326 4.76861 -2 ft 17 kts 55°
2026-05-06 11:11 52.30392 4.77032 -2 ft 19 kts 56°
2026-05-06 11:11 52.30461 4.77211 -2 ft 18 kts 57°
2026-05-06 11:12 52.30527 4.77382 -2 ft 18 kts 58°
2026-05-06 11:12 52.30595 4.77544 -2 ft 17 kts 44°
2026-05-06 11:12 52.30702 4.77590 -2 ft 16 kts 358°
2026-05-06 11:12 52.30803 4.77593 -2 ft 13 kts 341°
2026-05-06 11:13 52.30834 4.77471 -2 ft 12 kts 273°
2026-05-06 11:13 52.30839 4.77343 -2 ft 10 kts 272°
2026-05-06 11:13 52.30841 4.77261 -2 ft 4 kts 275°
2026-05-06 11:13 52.30866 4.77236 -2 ft 4 kts 352°
2026-05-06 11:14 52.30890 4.77238 -2 ft 2 kts
2026-05-06 11:14 52.30894 4.77238 -2 ft 0 kts